Content
SEND FEEDBACK

Daily
Averages
Monthly
Summary
Austria

KALSDORF, AUSTRIA


Home > Europe > Austria
Elevation: 1096 feet     Latitude: 47 00N     Longitude: 015 25E

WEATHER
 
SELECT A DAY
Number of Records: 312,083;   Date Range: 7/1/96 - 8/31/14
 
SHARE

PRINT THIS DATA

[ ← Previous Day ]
WEATHER ALMANAC - JANUARY 31, 2013
[ Next Day → ]
[ °C ]   °F
Weather ElementAverageHighLow
Temperature44.5 °F57.2 °F (2:50 pm)28 °F (1:00 am)
Dewpoint22.1 °F35.6 °F (2:50 am)12.2 °F (2:50 pm)
Humidity45.4 %100 % (12:50 am)10 % (1:00 pm)
Barometer29.98 in30.12 in (10:00 am)29.86 in (12:50 am)
Wind Speed6.8 mph16.1 mph (1:50 am)
Wind Gust26.5 mph (1:20 pm)
Weather ElementAverage
Visibility15.4 mi
Wind DirectionSW (220.9 °)

Weather ElementTotal
Precipitation---
Heating Degree Days22.4 (Base 65)
Averaged from 55 records on January 31, 2013
WEATHER CONDITIONS BREAKOUT
WIND DIRECTION BREAKOUT
WEATHER BY HOUR - JANUARY 31, 2013
[ °C ]   °F
Local TimeTemperatureDewpointHumidityBarometerVisibilityWind DirectionWind SpeedGust SpeedPrecipitationEventsConditions
12:50 AM28.4 °F28.4 °F100 %29.86 in3.1 miNorth (360°)6.9 mphMostly Cloudy
1:00 AM28.0 °F28.0 °F100 %29.93 in3.0 miNorth6.7 mph
1:20 AM32.0 °F32.0 °F100 %29.89 in3.7 miNorth (350°)6.9 mphOvercast
1:50 AM42.8 °F33.8 °F70 %29.92 in6.2 miNorth (350°)16.1 mphRainLight Rain Showers
2:20 AM46.4 °F33.8 °F62 %29.92 in6.2 miNNW (340°)13.8 mphOvercast
2:50 AM50.0 °F35.6 °F58 %29.95 in6.2 miNNW (340°)8.1 mphMostly Cloudy
3:20 AM50.0 °F28.4 °F43 %29.92 in6.2 miWest (270°)9.2 mphPartly Cloudy
3:50 AM46.4 °F30.2 °F53 %29.95 inVariable3.5 mphClear
4:00 AM47.0 °F30.0 °F39 %29.97 in31.0 mi°4.5 mphPartly Cloudy
4:20 AM44.6 °F30.2 °F57 %29.95 inVariable2.3 mphClear
4:50 AM48.2 °F21.2 °F34 %29.98 inNW (320°)13.8 mphClear
5:20 AM50.0 °F19.4 °F30 %29.98 inNW (310°)13.8 mph25.3 mphClear
5:50 AM50.0 °F21.2 °F32 %29.98 inNW (320°)13.8 mphClear
6:20 AM48.2 °F21.2 °F34 %30.01 inWNW (300°)10.4 mphClear
6:50 AM48.2 °F23.0 °F37 %30.01 in6.2 miWNW (290°)5.8 mphPartly Cloudy
7:00 AM47.0 °F23.0 °F25 %30.04 in47.0 miWNW (290°)6.7 mphPartly Cloudy
7:20 AM46.4 °F19.4 °F34 %30.04 in6.2 miWest (270°)3.5 mphPartly Cloudy
7:50 AM46.4 °F21.2 °F37 %30.06 in6.2 miWest (280°)5.8 mphPartly Cloudy
8:20 AM46.4 °F21.2 °F37 %30.06 in6.2 miVariable3.5 mphPartly Cloudy
8:50 AM50.0 °F19.4 °F30 %30.09 in6.2 miWest (280°)5.8 mphPartly Cloudy
9:20 AM50.0 °F19.4 °F30 %30.09 in6.2 miWNW (290°)5.8 mphPartly Cloudy
9:50 AM51.8 °F19.4 °F28 %30.09 in6.2 miWest (270°)5.8 mphPartly Cloudy
10:00 AM51.0 °F19.0 °F16 %30.12 in47.0 miWest (270°)6.7 mphScattered Clouds
10:20 AM51.8 °F17.6 °F26 %30.09 in6.2 miWNW (300°)10.4 mphPartly Cloudy
10:50 AM51.8 °F17.6 °F26 %30.09 in6.2 miWNW (300°)12.7 mphPartly Cloudy
11:20 AM53.6 °F15.8 °F22 %30.09 in6.2 miWNW (300°)12.7 mphPartly Cloudy
11:50 AM53.6 °F15.8 °F22 %30.06 in6.2 miNW (310°)11.5 mphPartly Cloudy
12:20 PM53.6 °F15.8 °F22 %30.06 inNW (310°)9.2 mphClear
12:50 PM53.6 °F14.0 °F21 %30.04 inNW (320°)11.5 mphClear
1:00 PM54.0 °F14.0 °F10 %30.06 in47.0 miNW (320°)11.2 mphScattered Clouds
1:20 PM55.4 °F14.0 °F20 %30.04 inNW (310°)12.7 mph26.5 mphClear
1:50 PM55.4 °F15.8 °F21 %30.04 inNW (320°)9.2 mphClear
2:20 PM55.4 °F14.0 °F20 %30.01 inNW (310°)10.4 mphClear
2:50 PM57.2 °F12.2 °F17 %29.98 inWNW (290°)4.6 mphClear
3:20 PM51.8 °F17.6 °F26 %29.98 inSSE (150°)4.6 mphClear
3:50 PM55.4 °F17.6 °F23 %29.98 inSSW (200°)4.6 mphClear
4:00 PM55.0 °F17.0 °F12 %29.98 in47.0 miSSW (200°)4.5 mphScattered Clouds
4:20 PM53.6 °F17.6 °F24 %29.95 inSouth (180°)5.8 mphClear
4:50 PM46.4 °F19.4 °F34 %29.95 inSSE (150°)4.6 mphClear
5:20 PM44.6 °F21.2 °F39 %29.92 inSSE (160°)6.9 mphClear
5:50 PM41.0 °F23.0 °F49 %29.92 inVariable2.3 mphClear
6:20 PM39.2 °F23.0 °F52 %29.92 inNNW (330°)3.5 mphClear
6:50 PM37.4 °F23.0 °F56 %29.89 inVariable2.3 mphClear
7:00 PM38.0 °F24.0 °F44 %29.94 in37.0 mi°2.2 mphScattered Clouds
7:20 PM35.6 °F23.0 °F60 %29.89 inNNW (340°)6.9 mphClear
7:50 PM35.6 °F26.6 °F70 %29.89 inNW (320°)4.6 mphClear
8:20 PM35.6 °F24.8 °F65 %29.89 inWNW (290°)4.6 mphClear
8:50 PM32.0 °F24.8 °F75 %29.89 inVariable1.2 mphClear
9:20 PM30.2 °F24.8 °F80 %29.89 inVariable1.2 mphClear
9:50 PM30.2 °F24.8 °F80 %29.92 inESE (110°)3.5 mphClear
10:00 PM30.0 °F24.0 °F70 %29.99 in25.0 miESE (110°)4.5 mphScattered Clouds
10:20 PM28.4 °F24.8 °F86 %29.89 inSE (140°)3.5 mphClear
10:50 PM28.4 °F23.0 °F80 %29.92 inVariable2.3 mphClear
11:20 PM28.4 °F23.0 °F80 %29.92 inVariable1.2 mphClear
11:50 PM28.4 °F23.0 °F80 %29.89 inSE (140°)5.8 mphClear
Hourly data recorded from LOWG, located miles away from Kalsdorf, Austria







STORIES FROM OUR PARTNERS